Regional Weather Roundup
Issued by NWS

Home | Current Version | Previous Version | Text Only | Print | Product List | Glossary Off
Versions: 1 2 3 4 5 6 7 8 9 10 11 12 13 14 15 16 17 18 19 20 21 22 23 24 25 26 27 28 29 30 31 32 33 34 35 36 37 38 39 40 41 42 43 44 45 46 47 48 49 50

493
ASUS43 KOAX 230702
RWRNE

WEATHER ROUNDUP FOR NEBRASKA
NATIONAL WEATHER SERVICE OMAHA NE
100 AM CST FRI FEB 23 2018

NOTES: SATELLITE DATA IS BEING USED TO AUGMENT CLOUD COVER ABOVE
       12000 FEET.
       "FAIR" INDICATES FEW OR NO CLOUDS BELOW 12,000 FEET WITH NO
       SIGNIFICANT WEATHER AND/OR OBSTRUCTIONS TO VISIBILITY.


NEZ001>004-019>022-054>056-230800-
NEBRASKA PANHANDLE

CITY           SKY/WX    TMP DP  RH WIND       PRES   REMARKS
SCOTTSBLUFF    CLEAR      4   1  88 N5        30.08R WCI  -5
ALLIANCE       PTCLDY     3   0  87 W9        30.07R WCI -12
CHADRON        PTCLDY    -4  -8  83 SW5       30.14R WCI -15
GORDON         FLURRIES   8   4  84 CALM      30.07R
KIMBALL        CLOUDY    17  13  85 W6        30.05R WCI   8
SIDNEY         CLOUDY    19  14  81 W7        30.07R WCI  10
$$

NEZ057>060-069>072-079>082-230800-
SOUTHWEST NEBRASKA

CITY           SKY/WX    TMP DP  RH WIND       PRES   REMARKS
NORTH PLATTE   HAZE       8   2  76 CALM      30.14R VSB 1/2
IMPERIAL       CLOUDY    20  18  92 SW6       30.13R WCI  12
LEXINGTON      CLEAR     16  13  89 W8        30.15R WCI   5
MCCOOK         CLOUDY    19  18  95 W5        30.17R WCI  12
OGALLALA       MOCLDY    17  15  91 CALM      30.11S
$$

NEZ005>010-023>029-035>040-094-230800-
NORTH CENTRAL NEBRASKA

CITY           SKY/WX    TMP DP  RH WIND       PRES   REMARKS
VALENTINE      CLOUDY    16  13  88 NW5       30.10F WCI   9
AINSWORTH      CLEAR     14  13  94 W9        30.09S WCI   2
BROKEN BOW     CLEAR     13  10  88 CALM      30.12R
O`NEILL        CLEAR     15  14  97 SW5       30.10F WCI   8
ORD            CLEAR     16  12  84 N3        30.12S
THEDFORD       MOCLDY    13  10  90 W6        30.10R WCI   4
$$

NEZ041-046>049-061>064-073>077-083>087-230800-
SOUTH CENTRAL NEBRASKA

CITY           SKY/WX    TMP DP  RH WIND       PRES   REMARKS
GRAND ISLAND   CLOUDY    26  22  84 W10       30.16R WCI  16
AURORA         CLOUDY    26  25  94 W6        30.16R WCI  20
HASTINGS       CLOUDY    25  21  85 W8        30.17R WCI  16
HEBRON         CLOUDY    29  28  96 W3        30.20S
HOLDREGE       CLOUDY    22  21  95 W6        30.16R WCI  15
KEARNEY        PTCLDY    21  18  88 W7        30.17R WCI  12
YORK           MOCLDY    25  25 100 W3        30.17R
$$

NEZ011>018-030>034-042>045-230800-
NORTHEAST NEBRASKA

CITY           SKY/WX    TMP DP  RH WIND       PRES   REMARKS
NORFOLK        PTCLDY    20  19  96 SW3       30.13S
ALBION         FOG       18  16  94 CALM      30.15S VSB 1/2
BLAIR          CLOUDY    29  28  93 W5        30.16R WCI  24
COLUMBUS       PTCLDY    23  21  92 CALM      30.17S FOG
FREMONT        CLOUDY    28  27  96 W5        30.17F WCI  22
TEKAMAH        CLOUDY    27  25  92 W7        30.17R WCI  19
WAYNE          CLOUDY    25  24  96 W3        30.14F
$$

NEZ050>053-065>068-078-088>093-230800-
SOUTHEAST NEBRASKA

CITY           SKY/WX    TMP DP  RH WIND       PRES   REMARKS
LINCOLN        CLOUDY    29  26  89 W6        30.19F WCI  23
OMAHA EPPLEY   CLOUDY    32  29  88 W7        30.18R WCI  26
BEATRICE       CLOUDY    32  31  95 W8        30.18R WCI  25
FALLS CITY     CLOUDY    32  32 100 W5        30.18S FOG     WCI  27
NEBRASKA CITY  CLOUDY    32  32 100 W5        30.16S WCI  27
PLATTSMOUTH    CLOUDY    31  31  99 W8        30.17S WCI  24
$$

NEZ044-045-051>053-067-230800-
OMAHA AREA

CITY           SKY/WX    TMP DP  RH WIND       PRES   REMARKS
OMAHA EPPLEY   CLOUDY    32  29  88 W7        30.18R WCI  26
BLAIR          CLOUDY    29  28  93 W5        30.16R WCI  24
FREMONT        CLOUDY    28  27  96 W5        30.17F WCI  22
MILLARD        CLOUDY    32  30  91 NW9       30.18R WCI  24
OFFUTT AFB     CLOUDY    31  30  94 W5        30.17R WCI  27
PLATTSMOUTH    CLOUDY    31  31  99 W8        30.17S WCI  24
WAHOO          CLOUDY    28  26  91 W3        30.17F
$$




USA.gov is the U.S. government's official web portal to all federal, state and local government web resources and services.